Regional Weather Roundup
Issued by NWS Green Bay, WI

Home | Current Version | Previous Version | Text Only | Print | Product List | Glossary On
Versions: 1 2 3 4 5 6 7 8 9 10 11 12 13 14 15 16 17 18 19 20 21 22 23 24 25 26 27 28 29 30 31 32 33 34 35 36 37 38 39 40 41 42 43 44 45 46 47 48 49 50
000
ASUS43 KGRB 260211
RWRGRB

NORTH-CENTRAL AND NORTHEAST WISCONSIN REGIONAL WEATHER ROUNDUP
NATIONAL WEATHER SERVICE GREEN BAY WI
900 PM CDT MON SEP 25 2017

WIZ005-009-010>012-018-019-260300-
NORTH CENTRAL WISCONSIN

CITY           SKY/WX    TMP DP  RH WIND       PRES   REMARKS
IRONWOOD       NOT AVBL
MANITOWISH WTR NOT AVBL
ARBOR VITAE    MOCLDY    63  62  96 N5        29.96F
EAGLE RIVER    LGT RAIN  62  62  99 NE7       29.96F
LAND O LAKES   RAIN      62  61  96 NE3       30.01F
RHINELANDER    PTCLDY    65  65 100 CALM      29.97S
PHILLIPS       CLOUDY    61  61 100 N8        29.97F
ANTIGO         CLOUDY    67  65  93 W6        29.97R
TOMAHAWK       FOG       61  60  96 CALM      29.97R VSB 1
MERRILL        CLOUDY    70  65  84 CALM      29.96R
$$

WIZ013-073-260300-
NORTHEAST WISCONSIN

CITY           SKY/WX    TMP DP  RH WIND       PRES   REMARKS
IRON MOUNTAIN  PTCLDY    72  63  73 CALM      29.93R
MARINETTE      CLEAR     72  62  71 SW6       29.93S
OCONTO         CLEAR     72  63  75 S3        29.92S
$$

WIZ017-030-035>037-045-260300-
CENTRAL WISCONSIN

CITY           SKY/WX    TMP DP  RH WIND       PRES   REMARKS
MEDFORD        PTCLDY    64  62  93 CALM      29.96R
WAUSAU         LGT RAIN  68  66  93 S8        29.95R
MOSINEE        CLOUDY    66  64  94 S7        29.98S
MARSHFIELD     CLOUDY    67  61  81 S6        29.95R
WISC RAPIDS    HVY RAIN  68  64  87 W9        29.95F FOG
STEVENS POINT  CLOUDY    70  61  74 W5        29.96F
WAUPACA        CLOUDY    73  66  79 CALM      29.94S
SHAWANO        CLEAR     76  65  67 S3        29.93R
CLINTONVILLE   CLOUDY    73  64  73 SW3       29.94R
WAUTOMA        CLOUDY    72  64  76 CALM      29.94S
$$

WIZ038-039-048-051-260300-
FOX VALLEY

CITY           SKY/WX    TMP DP  RH WIND       PRES   REMARKS
NWS GREEN BAY  CLEAR     74  63  68 S6        29.93R
APPLETON       MOCLDY    73  57  56 W10       29.94R
OSHKOSH        CLEAR     69  61  75 S7        29.92S
FOND DU LAC    CLEAR     71  60  68 SE6       29.93S
$$

WIZ022-050-052-260300-
EAST CENTRAL WISCONSIN

CITY           SKY/WX    TMP DP  RH WIND       PRES   REMARKS
EPHRAIM        FAIR      72  60  66 S6        29.93S
WASHINGTON ISL FAIR      71  61  71 S6        29.92S
STURGEON BAY   CLEAR     73  61  65 S8        29.94R
MANITOWOC      CLEAR     70  63  78 S6        29.94S
SHEBOYGAN      CLEAR     67  65  93 CALM      29.94S
$$

LMZ563-521-522-541>543-260300-
LAKESHORE

STATION/POSITION TIME  TEMP    WIND        PRES    VSBY  WAVE
                       AIR SEA DIR/SP/G                  HT/PER
                 (UTC) (F)     (DEG/KT/KT) (MB)    (MI)  (FT/S)
SHEBOYGAN LKSHOR 0200   73     200/  8/ 10 1013.3S
KEWAUNEE LKSHORE 0142   65     170/  3/  4 1013.1R
NORTHPORT PIER   0140   74     190/  4/  8 1013.2S
N MID LAKE BUOY  0150   69 68  160/  8/ 10 1014.2R         1
SISTER BAY LKSHO 0204   74     190/ 11/ 14   N/A
MENOMINEE LKSHOR 0142   74     170/  7/  8 1013.0R
$$



USA.gov is the U.S. government's official web portal to all federal, state and local government web resources and services.